Regional Weather Roundup
Issued by NWS

Home | Current Version | Previous Version | Text Only | Print | Product List | Glossary On
Versions: 1 2 3 4 5 6 7 8 9 10 11 12 13 14 15 16 17 18 19 20 21 22 23 24 25 26 27 28 29 30 31 32 33 34 35 36 37 38 39 40 41 42 43 44 45 46 47 48 49 50
473
ASUS43 KMPX 290610
RWRMN
WEATHER ROUNDUP FOR MINNESOTA
NATIONAL WEATHER SERVICE TWIN CITIES/CHANHASSEN MN
100 AM CDT FRI JUL 29 2016


NOTE: "FAIR" INDICATES FEW OR NO CLOUDS BELOW 12,000 FEET WITH NO
SIGNIFICANT WEATHER AND/OR OBSTRUCTIONS TO VISIBILITY. N/A MEANS
CURRENT SKY AND/OR WEATHER CONDITIONS ARE NOT AVAILABLE.

MNZ060>063-068>070-290700-
   Twin Cities Metro

CITY           SKY/WX    TMP DP  RH WIND       PRES   REMARKS
TWIN CITIES    MOCLDY    66  57  72 NE3       30.06R
6HR MIN TEMP:  66; 6HR MAX TEMP:  74;

ST PAUL        MOCLDY    66  56  70 CALM      30.06R
CRYSTAL        CLEAR     63  55  75 N5        30.05S
BLAINE         CLEAR     63  61  94 N3        30.07S
LAKEVILLE      CLOUDY    64  64 100 CALM      30.05S
EDEN PRAIRIE   CLEAR     67  57  70 NE6       30.05R
6HR MIN TEMP:  67; 6HR MAX TEMP:  75;

LAKEVILLE      CLOUDY    64  64 100 CALM      30.05S
SOUTH ST PAUL  MOCLDY    67  57  70 N3        30.06R
LAKE ELMO      FAIR      63  55  77 NE3       30.07S
$$
MNZ001>005-007-008-013>017-022>024-027-028-290700-
   Northwest Minnesota

CITY           SKY/WX    TMP DP  RH WIND       PRES   REMARKS
BEMIDJI        CLEAR     55  55 100 W5        30.10S
HALLOCK        CLEAR     55  54  94 CALM      30.11S
ROSEAU         CLEAR     55  52  88 CALM      30.11S
WARROAD        CLEAR     55  52  88 CALM      30.11S
THIEF RVR FALL CLEAR     58  55  90 CALM      30.12S
CROOKSTON      CLEAR     59  55  88 N5        30.11S
FOSSTON        CLEAR     54  52  94 CALM      30.12S
DETROIT LAKES  MOCLDY    63  61  94 CALM      30.12S
MOORHEAD       MOCLDY    63  59  88 CALM      30.11S
PARK RAPIDS    CLEAR     61  55  81 CALM      30.11R
MAHNOMEN       FAIR      58  57  94 CALM      30.11S
$$
MNZ006-009>011-018-025>026-290700-
   North Central Minnesota

CITY           SKY/WX    TMP DP  RH WIND       PRES   REMARKS
BAUDETTE       CLEAR     54  52  93 CALM      30.10R
FLAG ISLAND    CLEAR     66  57  72 CALM      30.09S
INTL FALLS     CLEAR     52  51  97 CALM      30.09S
6HR MIN TEMP:  51; 6HR MAX TEMP:  75;

WASKISH        CLEAR     59  54  82 CALM      30.10R
BIG FORK       CLEAR     57  54  88 CALM      30.11R
LONGVILLE      CLEAR     55  54  94 CALM      30.10S
GRAND RAPIDS   CLOUDY    57  53  86 CALM      30.13R
CRANE LAKE     CLEAR     52  50  93 CALM      30.12S
ORR            CLEAR     55  52  88 CALM      30.09S
COOK           CLEAR     54  52  94 CALM      30.12R
WALKER         FAIR      56  54  94 CALM      30.10F
$$
MNZ012-019>021-037-290700-
   Northeast Minnesota

CITY           SKY/WX    TMP DP  RH WIND       PRES   REMARKS
DULUTH         CLEAR     52  50  93 NE3       30.11R
6HR MIN TEMP:  52; 6HR MAX TEMP:  67;

ELY            CLEAR     52  48  87 CALM      30.12S
HIBBING        CLEAR     49  48  97 CALM      30.11S
EVELETH        CLEAR     53  52  97 CALM      30.12S
DULUTH HARBOR  CLEAR     63  57  82 NE7       30.10S
TWO HARBORS    CLEAR     55  50  82 CALM      30.09S
SILVER BAY     CLEAR     50  48  93 CALM      30.09S
GRAND MARAIS     N/A     57  51  80 CALM      30.09S
G MARAIS ARPRT CLEAR     48  45  87 N3        30.13F
$$
MNZ029>031-032-039>041-046>048-054>057-064-290700-
   West Central Minnesota

CITY           SKY/WX    TMP DP  RH WIND       PRES   REMARKS
FERGUS FALLS   PTCLDY    66  61  82 CALM      30.11R
WHEATON        CLOUDY    64  63  94 SE8       30.11R
MORRIS         CLEAR     64  63  94 CALM      30.09S
ALEXANDRIA     CLEAR     63  55  75 SE3       30.12S
ELBOW LAKE     FAIR      63  59  87 SE6       30.11R
WADENA         CLEAR     59  57  94 CALM      30.10S
GLENWOOD       CLEAR     63  55  77 CALM      30.11S
APPLETON       CLOUDY    66  63  88 NW6       30.09S
BENSON         PTCLDY    61  55  82 CALM      30.09S
ORTONVILLE     CLOUDY    64  57  77 CALM      30.09F
MADISON        CLOUDY    64  57  77 N5        30.09S
WILLMAR        FAIR      61  55  82 NE3       30.10S
$$
MNZ033>034-036-042>043-049>051-058-059-290700-
   Central Minnesota

CITY           SKY/WX    TMP DP  RH WIND       PRES   REMARKS
ST CLOUD       CLEAR     60  56  86 CALM      30.08S
6HR MIN TEMP:  58; 6HR MAX TEMP:  73;

SAUK CENTRE    FAIR      58  56  94 CALM      30.11S
PAYNESVILLE    CLEAR     55  55 100 W3        30.10S
AITKIN         PTCLDY    57  52  82 CALM      30.10S
PINE RIVER     CLEAR     55  55 100 CALM      30.14S
BRAINERD       CLOUDY    61  59  93 CALM      30.11R
STAPLES        CLEAR     61  57  88 CALM      30.11S
LONG PRAIRIE   FAIR      57  55  94 CALM      30.11S
LITTLE FALLS   MOCLDY    55  54  94 CALM      30.10S
LITCHFIELD     CLEAR     64  59  82 CALM      30.10R
BUFFALO        PTCLDY    62  56  82 N5        30.08S
MAPLE LAKE     PTCLDY    61  58  90 CALM      30.09S
HUTCHINSON     CLOUDY    65  59  80 N3        30.09S
$$
MNZ037-044-045-052-053-290700-
   East Central Minnesota

CITY           SKY/WX    TMP DP  RH WIND       PRES   REMARKS
PRINCETON        N/A     59  55  88 N3        30.08F
MORA           CLEAR     54  52  94 CALM      30.11S
CAMBRIDGE      MOCLDY    61  54  77 CALM      30.06S
RUSH CITY      PTCLDY    57  53  87 CALM      30.08S
MOOSE LAKE     CLEAR     55  55 100 NE3       30.09S
HINCKLEY       FAIR      55  54  94 CALM      30.09S
CLOQUET        CLEAR     52  48  87 CALM      30.11S
MCGREGOR       CLOUDY    59  54  82 CALM      30.11S
$$
MNZ071>073-080-081-089-090-097-098-290700-
   Southwest Minnesota

CITY           SKY/WX    TMP DP  RH WIND       PRES   REMARKS
MONTEVIDEO     PTCLDY    61  55  82 E5        30.10S
GRANITE FALLS  CLEAR     61  58  90 N5        30.09S
CANBY          CLEAR     60  56  88 NW3       30.10R
MARSHALL       CLEAR     58  55  90 CALM      30.09R
REDWOOD FALLS  CLEAR     63  56  78 N3        30.08R
OLIVIA         CLEAR     59  55  88 N5        30.08R
PIPESTONE      CLEAR     61  55  82 NE2       30.10S
WINDOM         CLEAR     61  57  88 CALM      30.09R
WORTHINGTON    CLOUDY    60  57  89 NW7       30.09S
JACKSON        CLOUDY    63  59  88 N5        30.07F
TRACY          CLEAR     61  58  91 CALM      30.10R
SLAYTON        CLEAR     56  55  95 NW3       30.11S
$$
MNZ065>067-074>077-082>085-091>093-290700-
   South Central Minnesota

CITY           SKY/WX    TMP DP  RH WIND       PRES   REMARKS
MANKATO        PTCLDY    66  57  72 N3        30.06R
NEW ULM        CLOUDY    64  59  82 N3        30.06S
ST JAMES       PTCLDY    55  54  94 CALM      30.07S
FAIRMONT       MOCLDY    64  61  88 N5        30.05S
GLENCOE        CLOUDY    63  61  93 CALM      30.07R
FARIBAULT      CLOUDY    64  63  94 CALM      30.06R
OWATONNA       CLOUDY    64  61  88 NE5       30.05S
WASECA         CLOUDY    63  61  94 NE3       30.07R
ALBERT LEA     CLOUDY    64  61  88 N5        30.05R
$$
MNZ078>079-086>088-094>096-290700-
   Southeast Minnesota

CITY           SKY/WX    TMP DP  RH WIND       PRES   REMARKS
ROCHESTER      CLOUDY    64  60  87 NE10      30.04S
6HR MIN TEMP:  64; 6HR MAX TEMP:  66;

RED WING       CLOUDY    66  63  88 MISG      30.04R
STANTON        CLOUDY    66  61  82 E3        30.04S
DODGE CENTER   CLOUDY   N/A N/A N/A NE6       30.04S
WINONA         CLOUDY    66  59  77 CALM      30.02R
AUSTIN         CLOUDY    64  57  77 NE3       30.03R
PRESTON        HVY RAIN  61  59  94 NE9       30.02F
$$
ABBREVIATIONS USED IN REMARKS
   TC - TEMPERATURES IN CELSIUS
  WCI - WIND CHILL INDEX
   HX - HEAT INDEX
  VSB - VISIBILITY
$$




USA.gov is the U.S. government's official web portal to all federal, state and local government web resources and services.